Glens Falls, NY

10:19 PM EST on December 11, 2019 (GMT -0500)
Bennett Memorial

Weather History for KGFL - October, 2019

Change the Weather History Date:

Saturday, October 12, 2019

  Actual Average Record
Temperature  
Mean Temperature 52 °F 48 °F  
Max Temperature 64 °F 60 °F 87 °F (1928)
Min Temperature 40 °F 36 °F 22 °F (1956)
Degree Days  
Heating Degree Days 13 17  
Month to date heating degree days 162 181  
Since 1 July heating degree days 384 466  
Cooling Degree Days 0 0  
Month to date cooling degree days 0 0  
Year to date cooling degree days 416 351  
Growing Degree Days 2 (Base 50)    
Moisture  
Dew Point 45 °F    
Average Humidity 74    
Maximum Humidity 96    
Minimum Humidity 52    
Precipitation  
Precipitation 0.00 in 0.12 in 1.41 in (1897)
Month to date precipitation 1.42 1.39  
Year to date precipitation 32.27 30.58  
Sea Level Pressure  
Sea Level Pressure 29.98 in    
Wind  
Wind Speed 3 mph (South)    
Max Wind Speed 10 mph    
Max Gust Speed 13 mph    
Visibility 10 miles    
Events      
T = Trace of Precipitation, MM = Missing Value Source: NWS Daily Summary

Daily Weather History Graph

Daily Weather History Graph

Search for Another Location

Airport or City:

Astronomy

Oct. 12, 2019 Rise Set
Actual Time 7:04 AM EDT 6:16 PM EDT
Civil Twilight 6:35 AM EDT 6:45 PM EDT
Nautical Twilight 6:02 AM EDT 7:18 PM EDT
Astronomical Twilight 5:29 AM EDT 7:51 PM EDT
Moon 6:14 PM EDT 5:34 AM EDT
Length of Visible Light 12h 09m
Length of Day
11h 12m
Waxing Gibbous, 99% of the Moon is Illuminated
Oct 12
Waxing Gibbous
Oct 13
Full
Oct 21
Last Quarter
Oct 27
New
Nov 4
First Quarter

Hourly Weather History & Observations

Time (EDT) Temp. Windchill Dew Point Humidity Pressure Visibility Wind Dir Wind Speed Gust Speed Precip Events Conditions
12:53 AM 46.9 °F - 43.0 °F 86% 30.09 in 10.0 mi Calm Calm - N/A   Clear
1:53 AM 45.0 °F - 43.0 °F 93% 30.07 in 10.0 mi Calm Calm - N/A   Partly Cloudy
2:53 AM 45.0 °F 43.5 °F 41.0 °F 86% 30.04 in 10.0 mi ENE 3.5 mph - N/A   Mostly Cloudy
3:53 AM 44.1 °F - 41.0 °F 89% 30.04 in 10.0 mi Calm Calm - N/A   Partly Cloudy
4:53 AM 43.0 °F - 41.0 °F 93% 30.01 in 10.0 mi Calm Calm - N/A   Overcast
5:53 AM 42.1 °F - 39.0 °F 89% 30.01 in 10.0 mi Calm Calm - N/A   Clear
6:53 AM 41.0 °F - 39.0 °F 93% 30.01 in 10.0 mi Calm Calm - N/A   Clear
7:53 AM 43.0 °F - 39.9 °F 89% 30.01 in 10.0 mi Calm Calm - N/A   Clear
8:53 AM 52.0 °F - 45.0 °F 77% 30.01 in 10.0 mi Calm Calm - N/A   Clear
9:53 AM 55.9 °F - 45.0 °F 67% 30.02 in 10.0 mi Calm Calm - N/A   Clear
10:53 AM 59.0 °F - 44.1 °F 58% 30.00 in 10.0 mi Variable 4.6 mph - N/A   Clear
11:53 AM 61.0 °F - 44.1 °F 54% 29.97 in 10.0 mi Calm Calm - N/A   Clear
12:53 PM 61.0 °F - 45.0 °F 56% 29.96 in 10.0 mi SSW 4.6 mph - N/A   Clear
1:53 PM 62.1 °F - 46.0 °F 56% 29.94 in 10.0 mi SE 6.9 mph - N/A   Clear
2:53 PM 64.0 °F - 46.0 °F 52% 29.93 in 10.0 mi SSW 5.8 mph - N/A   Clear
3:53 PM 62.1 °F - 46.9 °F 58% 29.92 in 10.0 mi South 8.1 mph - N/A   Clear
4:53 PM 62.1 °F - 48.9 °F 62% 29.92 in 10.0 mi SSE 8.1 mph - N/A   Mostly Cloudy
5:53 PM 60.1 °F - 46.9 °F 62% 29.93 in 10.0 mi SSW 5.8 mph - N/A   Overcast
6:53 PM 59.0 °F - 48.0 °F 67% 29.94 in 10.0 mi South 4.6 mph - N/A   Overcast
7:53 PM 57.9 °F - 48.9 °F 72% 29.94 in 10.0 mi South 5.8 mph - N/A   Overcast
8:53 PM 57.9 °F - 50.0 °F 75% 29.95 in 10.0 mi South 5.8 mph - N/A   Overcast
9:53 PM 57.0 °F - 50.0 °F 77% 29.96 in 10.0 mi Calm Calm - N/A   Overcast
10:53 PM 57.0 °F - 50.0 °F 77% 29.98 in 10.0 mi Calm Calm - N/A   Overcast
11:36 PM 57.0 °F - 51.1 °F 81% 29.98 in 10.0 mi Calm Calm - N/A   Overcast
11:53 PM 57.9 °F - 51.1 °F 78% 29.99 in 10.0 mi Calm Calm - N/A   Overcast